User: anonymous   Login
Location: Windsor
(43.2292°N, 89.3015°W)
Time: 17:51:43
(UTC+00:00)
Language:

COSMOS 1408 DEB - Orbit

View from above orbital plane
View from above orbital plane
View from above satellite
View from above satellite

Ground track
Ground track

The orbit data is extracted from the following two-line orbital elements,

1 51930U 82092BTG 22232.39042558  .00976113  00000-0  88293-2 0  9995
2 51930  82.4839 214.8817 0061526 214.9296 144.7920 15.63033717 26739
Epoch (UTC): 20 August 2022 09:22:12
Eccentricity: 0.0061526
inclination: 82.4839°
perigee height: 337 km
apogee height: 420 km
right ascension of ascending node: 214.8817°
argument of perigee: 214.9296°
revolutions per day: 15.63033717
mean anomaly at epoch: 144.7920°
orbit number at epoch: 2673

The dashed part of the orbit path shows where the satellite is in the earth's shadow,  

DLR